Location: Aulnay-sous-Bois
(48.9381°N, 2.4940°E)
Time: 18:50:58
(UTC+00:00)

Daily predictions for brighter satellites

Satellite Brightness Start Highest point End
(mag) Time Altitude Azimuth Time Altitude Azimuth Time Altitude Azimuth
Cosmos 1092 Rocket 4.5 17:51:17 10° N 17:57:02 38° ENE 18:02:48 10° SE
BREEZE-M DEB (TANK) 3.0 17:56:20 10° W 17:58:51 48° SSW 18:04:42 10° SE
Cosmos 1464 Rocket 4.0 17:53:34 10° S 17:59:41 72° E 18:05:55 10° NNE
PSLV R/B 4.0 17:55:53 10° NNE 18:00:06 65° ESE 18:04:16 10° S
COSMO-SKYMED 1 2.5 17:57:28 10° NNE 18:01:49 72° ESE 18:06:09 10° S
Cosmos 2263 Rocket 4.3 17:57:43 10° W 18:02:20 26° NW 18:07:00 10° NNE
COSMOS 2455 4.3 17:59:22 10° SE 18:02:46 16° ESE 18:06:10 10° ENE
ERS-2 4.4 17:59:55 10° N 18:03:08 30° WNW 18:06:20 10° SW
Cosmos 1844 Rocket 2.9 17:57:49 10° SSW 18:03:24 81° WNW 18:09:04 10° NNE
Okean-O 2.6 17:59:37 10° SSE 18:04:02 72° ENE 18:08:29 10° N
Cosmos 2151 Rocket 3.6 18:01:07 10° S 18:05:35 68° E 18:10:06 10° NNE
Cosmos 1689 Rocket 2.2 18:02:47 10° N 18:05:46 78° WNW 18:08:42 10° SSW
CZ-2C R/B 3.5 18:00:32 10° SE 18:05:55 52° ENE 18:11:30 10° N
H-2A R/B 2.5 18:03:03 10° SE 18:07:47 40° ENE 18:12:40 10° N
KORONAS-FOTON 3.8 18:09:24 10° N 18:13:19 63° E 18:17:10 10° SSE
Meteor 1-12 Rocket 4.5 18:08:14 10° SSW 18:14:03 80° W 18:19:49 10° N
Cosmos 2285 Rocket 4.0 18:08:16 10° S 18:14:32 71° ESE 18:20:54 10° NNE
Cosmos 1025 Rocket 3.7 18:11:43 10° NNW 18:16:05 63° W 18:20:25 10° S
Cosmos 1300 Rocket 4.0 18:12:36 10° SSW 18:17:01 70° W 18:21:29 10° N
ISS -3.4 18:14:55 10° WNW 18:18:16 57° N 18:21:09 13° E
Cosmos 1805 3.5 18:17:13 10° SSE 18:20:59 48° E 18:24:47 10° NNE
TSX-5 4.1 18:17:21 10° SSW 18:21:26 71° ESE 18:26:48 10° NE
Cosmos 2278 Rocket 2.8 18:18:33 10° S 18:23:34 34° ESE 18:28:37 10° NE
Cosmos 1125 Rocket 4.0 18:24:33 10° SSW 18:29:51 68° WNW 18:35:10 10° NNE
Cosmos 1833 Rocket 2.8 18:24:35 10° NNW 18:30:12 61° ENE 18:35:48 10° SE
Cosmos 1844 4.2 18:24:56 10° SW 18:30:33 64° WNW 18:36:09 10° NNE
Nadezhda 4 Rocket 4.1 18:25:05 10° N 18:31:14 83° W 18:37:23 10° S
CSL-04 Rocket 3.7 18:26:01 10° SSE 18:31:29 72° ENE 18:37:03 10° NNW
HJ-1C 3.5 18:28:16 10° SSE 18:31:29 52° ENE 18:34:45 10° N
Cosmos 2251 Rocket 4.3 18:26:43 10° N 18:31:38 35° NE 18:35:38 14° ESE
Okean 1 Rocket 3.1 18:27:43 10° S 18:32:08 60° E 18:36:34 10° NNE
COSMOS 2406 3.2 18:30:54 10° NNW 18:36:37 86° ENE 18:42:19 10° SSE
Cosmos 1340 Rocket 3.3 18:33:27 10° SSE 18:37:09 38° E 18:40:55 10° NNE
CSL-04 Debris 4.1 18:31:53 10° SSE 18:37:16 82° ENE 18:42:43 10° NNW
YAOGAN 1 3.0 18:37:43 10° S 18:42:01 65° WSW 18:46:20 10° NNW
Lacrosse 4 Rocket 1.4 18:38:09 10° NNW 18:42:12 59° NE 18:45:15 17° SE
Cosmos 1674 3.4 18:39:48 10° NNW 18:43:36 56° W 18:47:19 10° S
Lacrosse 5 rocket 1.8 18:39:48 10° NW 18:44:07 54° NNE 18:46:58 21° E
CZ-4C R/B 2.8 18:44:23 10° S 18:48:41 30° ESE 18:53:37 10° NE
Cosmos 1758 4.5 18:50:55 23° E 18:50:55 23° E 18:53:56 10° NE
Exosat Rocket 3.7 18:45:56 10° SSW 18:51:03 73° WNW 18:56:13 10° NNE
Shenzhou-11 Module 3.8 18:53:51 10° SSW 18:54:23 11° SSW 18:54:23 11° SSW
CZ-4 R/B 3.0 18:51:15 10° SSW 18:55:10 38° W 18:59:02 10° NNW
Cosmos 1892 Rocket 3.6 18:53:42 10° N 18:58:00 56° ENE 19:01:33 15° SSE
ARGOS 3.1 18:53:51 10° SSE 18:59:13 80° ENE 19:04:39 10° NNW
FREGAT/IRIS 4.3 19:01:27 17° NNE 19:01:27 17° NNE 19:02:22 10° NNE
Meteor 1-24 Rocket 3.7 18:54:58 10° NNW 19:00:41 87° ENE 19:06:35 10° S
CZ-2C R/B 3.1 18:56:34 10° NNE 19:01:49 39° E 19:07:02 10° SSE
MOS 1 Rocket 2.9 18:57:32 10° NNE 19:01:52 74° ESE 19:06:08 10° S
APEX 3.6 18:59:51 10° S 19:02:55 36° ESE 19:03:27 34° E
Cosmos 1626 2.2 19:00:08 10° NNW 19:03:51 77° W 19:07:32 10° S
USA 186 1.9 19:04:01 39° SE 19:04:52 52° ENE 19:08:04 10° N
Cosmos 1544 Rocket 4.4 19:05:34 28° ENE 19:05:34 28° ENE 19:08:48 10° NNE
MOS 1 4.4 19:03:08 18° SE 19:07:16 54° ENE 19:12:50 10° N
Meteor 1-22 Rocket 4.3 19:01:28 10° S 19:07:28 79° E 19:13:37 10° NNE
Aureole 2 Rocket 2.8 19:05:30 10° SW 19:08:46 59° WNW 19:11:58 10° NNE
Cosmos 1470 3.0 19:08:02 27° SSE 19:09:39 43° E 19:13:21 10° NNE
Ariane Rocket 3.0 19:06:14 19° SE 19:09:53 60° ENE 19:14:54 10° N
Resurs 01 Rocket 3.0 19:10:01 21° ENE 19:10:01 21° ENE 19:13:16 10° NNE
SL-14 R/B 3.4 19:05:56 10° NNW 19:09:56 78° W 19:13:56 10° S
Cosmos 1766 4.0 19:08:10 10° SSW 19:12:03 56° WNW 19:16:00 10° N
NOSS 3-4 (A) 3.9 19:09:07 10° WSW 19:15:01 63° NW 19:21:26 10° NE
NOSS 3-4 (C) 3.9 19:09:13 10° SW 19:15:07 63° NW 19:21:32 10° NE
SL-8 R/B 4.2 19:11:39 10° SW 19:16:06 39° SSE 19:17:03 36° ESE
Cosmos 1733 4.0 19:13:48 10° SSW 19:17:32 53° WNW 19:21:18 10° N
Cosmos 2098 Rocket 3.9 19:11:46 10° N 19:17:39 45° ENE 19:19:21 34° ESE
MetOp-A 4.1 19:16:54 25° SE 19:20:00 61° ENE 19:25:17 10° N
Cosmos 407 Rocket 4.3 19:18:07 10° N 19:22:43 31° NE 19:23:25 30° ENE
Resurs 1-3 4.1 19:23:00 38° ENE 19:23:12 38° ENE 19:27:17 10° N
ARIANE 5 R/B 4.5 19:24:52 16° NE 19:24:52 16° NE 19:26:41 10° NNE
RESURS DK-1 2.2 19:19:46 10° SSW 19:23:54 83° ESE 19:28:05 10° NNE
ATLAS 3B R/B 3.3 19:19:01 10° NW 19:25:44 57° WSW 19:31:52 14° SSE
SL-08 RB Rocket 3.7 19:23:00 16° S 19:26:37 79° WSW 19:31:09 10° NNW
Cosmos 1634 Rocket 4.1 19:20:31 10° SSW 19:26:42 80° W 19:32:59 10° N
deb Kosmos-1763 4.1 19:24:28 10° NNW 19:27:49 56° NE 19:27:49 56° NE
USA 290 4.1 19:28:35 10° N 19:30:11 22° NNE 19:30:11 22° NNE
Cosmos 1602 Rocket 4.4 19:31:07 10° N 19:34:33 35° NE 19:34:33 35° NE
Cosmos 1461 3.2 19:31:06 10° NW 19:35:53 68° NE 19:36:42 56° ESE
Cosmos 2082 Rocket 2.3 19:30:50 10° NNW 19:36:29 77° WSW 19:39:28 29° SSE
ATLAS 2AS CENTAUR R/B 3.5 19:29:48 10° WSW 19:37:42 61° NW 19:45:26 10° NE
Meteor 2-10 4.1 19:35:05 28° SSE 19:37:48 56° E 19:42:57 10° NNE
Cosmos 1626 Rocket 3.6 19:39:55 10° N 19:44:08 59° ENE 19:44:08 59° ENE
H-2A R/B 3.7 19:42:45 10° SSW 19:47:18 32° W 19:51:59 10° NNW
COSMOS 2455 2.7 19:41:44 10° SSW 19:47:45 80° ESE 19:53:49 10° NE
Cosmos 1455 Rocket 3.1 19:43:53 10° SSW 19:48:15 75° W 19:52:37 10° N
Cosmos 2084 4.0 19:46:17 10° NW 19:50:28 47° NNE 19:50:28 47° NNE
SJ-6B 3.1 19:50:50 54° SW 19:51:19 60° W 19:55:09 10° NNW
OBJECT-B 2.6 19:55:53 28° NNW 19:55:53 28° NNW 19:57:34 10° NNW
ISS -2.3 19:51:49 10° WNW 19:54:07 37° W 19:54:07 37° W
Cosmos 2279 Rocket 4.1 19:49:09 10° SSW 19:55:25 78° W 20:01:43 10° N
Meteor 1-21 Rocket 4.2 19:50:55 10° N 19:56:48 80° ENE 19:58:18 52° SSE
DMSP B5D2-2 4.0 19:53:46 10° NNE 19:59:05 88° WNW 20:04:22 10° SSW
Cosmos 1655 Rocket 4.0 19:55:03 10° N 20:01:23 86° W 20:04:13 36° S
ATLAS CENTAUR R/B 3.4 20:04:04 10° NNW 20:05:28 16° N 20:05:28 16° N
Cosmos 2278 Rocket 3.2 20:02:05 10° SW 20:07:31 46° NW 20:12:59 10° NNE
Cosmos 909 Rocket 4.4 20:02:30 10° NW 20:08:47 58° WSW 20:10:59 38° S
Gbstr 26 Del rocket 4.2 20:03:08 10° WSW 20:10:09 85° SSE 20:13:01 44° ENE
Cosmos 1190 Rocket 4.3 20:09:34 10° NNW 20:14:05 56° NNE 20:14:05 56° NNE
Lacrosse 4 Rocket 3.7 20:17:45 10° WNW 20:20:28 17° WSW 20:21:35 16° SW
Lacrosse 5 rocket 2.8 20:19:06 10° WNW 20:22:36 36° WSW 20:22:36 36° WSW
MetOp-B 4.5 20:35:17 59° N 20:35:17 59° N 20:39:38 10° NNW
CZ-4C R/B 2.7 20:31:39 10° WSW 20:36:44 57° NW 20:42:54 10° NE
SPOT 3 Rocket 4.1 20:38:02 53° W 20:38:02 53° W 20:43:06 10° NNW
Cosmos 2266 Rocket 4.3 20:33:52 10° NNW 20:39:47 58° W 20:40:53 50° SW
CZ-2C R/B 4.1 20:36:56 10° N 20:42:04 38° WNW 20:47:13 10° SW
Terra 4.0 20:45:21 17° NNE 20:45:21 17° NNE 20:46:38 10° N
Cosmos 1140 Rocket 4.1 20:37:51 10° NNW 20:41:42 51° NNW 20:41:42 51° NNW
Resurs 01 Rocket 3.1 20:47:36 35° NW 20:47:36 35° NW 20:50:26 10° NNW
USA 229 DEB 4.2 20:55:23 10° NW 21:02:11 53° NNE 21:02:11 53° NNE
USA 229 4.2 20:55:30 10° NW 21:02:17 53° NNE 21:02:17 53° NNE
NOSS 3-1 (A) 4.4 21:07:49 10° NW 21:14:31 52° NNE 21:14:31 52° NNE
Cosmos 2297 Rocket 4.4 21:23:29 10° N 21:25:58 17° NNE 21:25:58 17° NNE
NOSS 3-1 (C) 4.4 21:41:48 10° NW 21:47:29 60° NW 21:47:29 60° NW
CZ-4C R/B 4.3 22:21:58 10° WNW 22:26:40 25° NNW 22:32:07 10° NE
